Location: Newark
(51.3318°N, 0.0053°E)
Time: 19:39:24
(UTC+00:00)

PicSat - Visible Passes

Search period start: 26 June 2022 00:00
Search period end: 06 July 2022 00:00
Orbit: 453 x 459 km, 97.4° (Epoch: 26 June)

Date Brightness Start Highest point End Pass type
(mag) Time Alt. Az. Time Alt. Az. Time Alt. Az.
26 Jun ? 22:24:40 18° S 22:27:03 59° W 22:30:29 10° NNW visible
27 Jun ? 21:51:12 15° SSE 21:53:54 54° ENE 21:57:17 10° N visible
27 Jun ? 23:25:26 10° WSW 23:27:07 13° W 23:28:49 10° WNW visible
28 Jun ? 21:18:03 10° ESE 21:20:52 24° ENE 21:23:42 10° N visible
28 Jun ? 22:51:27 15° SSW 22:53:40 29° W 22:56:43 10° NW visible
29 Jun ? 22:17:54 18° S 22:20:19 72° WSW 22:23:47 10° NNW visible
30 Jun ? 21:44:19 14° SE 21:47:05 45° ENE 21:50:24 10° N visible
30 Jun ? 23:18:04 10° SW 23:20:12 15° W 23:22:20 10° NW visible
01 Jul ? 21:11:21 10° ESE 21:13:58 21° ENE 21:16:36 10° NNE visible
01 Jul ? 22:44:27 17° SSW 22:46:39 34° W 22:49:51 10° NNW visible
02 Jul ? 22:10:48 18° SSE 22:13:14 88° WSW 22:16:43 10° NNW visible
03 Jul ? 21:37:06 12° SE 21:39:56 37° ENE 21:43:09 10° N visible
03 Jul ? 23:10:52 12° SW 23:12:57 18° W 23:15:26 10° NW visible
04 Jul ? 21:04:23 10° ESE 21:06:44 18° ENE 21:09:06 10° NNE visible
04 Jul ? 22:37:08 18° SSW 22:39:19 42° W 22:42:38 10° NNW visible
05 Jul ? 22:03:22 18° SSE 22:05:50 75° ENE 22:09:17 10° N visible
